Location: Miles
(41.4492°N, 81.6087°W)
Time: 14:40:24
(UTC+00:00)

Courier 1B - All Passes

Search period start: 13 September 2024 00:00
Search period end: 23 September 2024 00:00
Orbit: 962 x 1208 km, 28.3° (Epoch: 12 September)

Date Brightness Start Highest point End Pass type
(mag) Time Alt. Az. Time Alt. Az. Time Alt. Az.
13 Sep - 00:57:16 10° WSW 01:02:41 20° SSW 01:08:04 10° SSE visible
13 Sep - 18:26:59 10° S 18:29:07 11° SSE 18:31:16 10° SE daylight
13 Sep - 20:16:21 10° SW 20:22:08 25° SSE 20:28:06 10° ESE daylight
13 Sep - 22:09:02 10° WSW 22:15:31 30° S 22:22:09 10° ESE daylight
14 Sep - 00:03:02 10° WSW 00:08:56 24° SSW 00:14:51 10° SE visible
14 Sep - 02:00:39 10° SW 02:02:02 11° SSW 02:03:25 10° SSW visible
14 Sep - 19:23:13 10° SSW 19:28:25 21° SSE 19:33:50 10° ESE daylight
14 Sep - 21:15:22 10° SW 21:21:43 30° S 21:28:16 10° ESE daylight
14 Sep - 23:08:59 10° WSW 23:15:09 26° SSW 23:21:24 10° SE daylight
15 Sep - 01:04:36 10° SW 01:08:22 14° SSW 01:12:07 10° S visible
15 Sep - 18:30:22 10° SSW 18:34:46 17° SSE 18:39:19 10° ESE daylight
15 Sep - 20:21:51 10° SW 20:27:56 28° S 20:34:16 10° ESE daylight
15 Sep - 22:15:05 10° WSW 22:21:21 28° S 22:27:47 10° SE daylight
16 Sep - 00:09:51 10° WSW 00:14:39 18° SSW 00:19:30 10° SSE visible
16 Sep - 17:38:02 10° S 17:41:10 13° SSE 17:44:23 10° SE daylight
16 Sep - 19:28:27 10° SW 19:34:12 26° SSE 19:40:12 10° ESE daylight
16 Sep - 21:21:19 10° WSW 21:27:34 29° S 21:34:02 10° SE daylight
16 Sep - 23:15:30 10° WSW 23:20:55 21° SSW 23:26:25 10° SSE daylight
17 Sep - 18:35:15 10° SSW 18:40:31 23° SSE 18:46:01 10° ESE daylight
17 Sep - 20:27:39 10° WSW 20:33:47 29° S 20:40:12 10° ESE daylight
17 Sep - 22:21:25 10° WSW 22:27:10 24° SSW 22:33:04 10° SE daylight
18 Sep - 00:18:11 10° SW 00:20:19 11° SSW 00:22:29 10° S visible
18 Sep - 17:42:15 10° SSW 17:46:53 19° SSE 17:51:41 10° ESE daylight
18 Sep - 19:34:07 10° SW 19:40:03 28° S 19:46:16 10° ESE daylight
18 Sep - 21:27:30 10° WSW 21:33:24 26° S 21:39:31 10° SE daylight
18 Sep - 23:22:47 10° SW 23:26:38 15° SSW 23:30:33 10° S daylight
19 Sep - 16:49:36 10° S 16:53:18 15° SSE 16:57:05 10° SE daylight
19 Sep - 18:40:42 10° SW 18:46:20 26° S 18:52:16 10° ESE daylight
19 Sep - 20:33:43 10° WSW 20:39:39 28° S 20:45:51 10° SE daylight
19 Sep - 22:28:14 10° WSW 22:32:56 18° SSW 22:37:45 10° SSE daylight
20 Sep - 15:57:44 10° S 15:59:46 11° SSE 16:01:49 10° SE daylight
20 Sep - 17:47:25 10° SW 17:52:41 24° SSE 17:58:11 10° ESE daylight
20 Sep - 19:40:03 10° WSW 19:45:55 28° S 19:52:04 10° SE daylight
20 Sep - 21:34:03 10° WSW 21:39:13 21° SSW 21:44:34 10° SSE daylight
21 Sep - 16:54:18 10° SSW 16:59:04 20° SSE 17:04:00 10° ESE daylight
21 Sep - 18:46:30 10° SW 18:52:13 28° S 18:58:13 10° ESE daylight
21 Sep - 20:40:05 10° WSW 20:45:30 23° SSW 20:51:09 10° SE daylight
21 Sep - 22:36:30 10° SW 22:38:39 11° SSW 22:40:50 10° S daylight
22 Sep - 16:01:26 10° SSW 16:05:29 17° SSE 16:09:39 10° ESE daylight
22 Sep - 17:53:03 10° SW 17:58:33 27° S 18:04:18 10° ESE daylight
22 Sep - 19:46:16 10° WSW 19:51:48 25° S 19:57:35 10° SE daylight
22 Sep - 21:41:20 10° SW 21:44:59 14° SSW 21:48:43 10° S daylight
